PBO Station Position Time Series. Reference Frame : NAM14
Format Version,1.1.1
4-character ID,P196
Station name,MeachumLflCN2006
Begin Date, 2006-04-21
End Date, 2023-06-26
Release Date, 2023-06-27
Reference position, 38.2981440642 North Latitude, -122.7426428083 East Longitude, 90.53561 meters elevation,
Date, North (mm), East (mm), Vertical (mm), North Std. Deviation (mm), East Std. Deviation (mm),              Vertical Std. Deviation (mm), Quality,
2006-04-21,0.00, 0.00, 0.00, 1.98, 1.57, 7.30, repro,
2006-04-22,0.40, 0.05, 4.60, 2.02, 1.62, 7.47, repro,
2006-04-23,1.25, -0.24, 3.29, 2.06, 1.68, 7.58, repro,
2006-04-24,0.50, 0.58, 3.18, 2.07, 1.71, 7.71, repro,
2006-04-25,0.73, -0.30, 3.31, 2.07, 1.68, 7.63, repro,
2006-04-26,0.06, -0.46, 1.52, 2.04, 1.64, 7.55, repro,
2006-04-27,0.03, -0.14, -1.26, 2.08, 1.64, 7.57, repro,
2006-04-28,0.80, -0.27, -0.95, 2.06, 1.59, 7.41, repro,
2006-04-29,-0.14, -0.25, 8.89, 1.99, 1.57, 7.28, repro,
2006-04-30,1.12, 0.37, 0.39, 1.99, 1.56, 7.28, repro,
2006-05-01,0.33, -0.73, 0.83, 1.99, 1.57, 7.28, repro,
2006-05-02,-1.04, -1.39, 0.50, 1.97, 1.55, 7.20, repro,
2006-05-03,0.13, -1.29, 0.94, 1.97, 1.56, 7.23, repro,
2006-05-04,0.19, -1.30, -0.28, 1.99, 1.57, 7.31, repro,
2006-05-05,-0.05, -0.68, 3.30, 1.99, 1.56, 7.29, repro,
2006-05-06,-0.04, -0.41, 6.13, 1.98, 1.56, 7.27, repro,
2006-05-07,0.15, -1.24, 3.78, 1.99, 1.57, 7.33, repro,
2006-05-08,0.21, -0.78, 2.65, 1.98, 1.57, 7.27, repro,
2006-05-09,0.36, -0.54, 3.54, 2.06, 1.62, 7.54, repro,
2006-05-10,-0.11, -0.77, 5.33, 1.99, 1.57, 7.32, repro,
2006-05-11,-0.53, -1.34, 5.49, 1.99, 1.57, 7.31, repro,
2006-05-12,-0.29, -0.85, 5.28, 1.97, 1.55, 7.14, repro,
2006-05-13,-0.22, -1.32, 2.49, 1.98, 1.57, 7.29, repro,
2006-05-14,0.29, -1.38, 2.25, 1.98, 1.57, 7.31, repro,
2006-05-15,-0.22, -1.35, 1.52, 1.99, 1.58, 7.35, repro,
2006-05-16,-0.53, -0.94, -0.68, 2.00, 1.60, 7.38, repro,
2006-05-17,0.62, -0.48, 5.76, 2.00, 1.59, 7.37, repro,
2006-05-18,-0.87, -1.39, 6.99, 2.04, 1.57, 7.31, repro,
2006-05-19,-0.54, -2.01, 3.58, 2.11, 1.62, 7.56, repro,
2006-05-20,0.18, -1.18, 3.16, 2.07, 1.61, 7.55, repro,
2006-05-21,-2.76, -1.03, 5.26, 2.14, 1.66, 7.70, repro,
2006-05-22,-0.06, -2.07, 5.99, 2.06, 1.64, 7.50, repro,
2006-05-23,-0.92, -0.74, 8.49, 2.05, 1.58, 7.30, repro,
2006-05-24,-0.49, -1.37, 3.44, 2.04, 1.58, 7.35, repro,
2006-05-25,0.68, -0.11, 2.09, 2.17, 1.67, 7.82, repro,
2006-05-26,0.39, -2.24, 1.54, 2.11, 1.63, 7.65, repro,
2006-05-27,1.14, -1.73, 2.90, 2.04, 1.59, 7.38, repro,
2006-05-28,0.03, 0.29, 5.47, 2.06, 1.61, 7.48, repro,
2006-05-29,0.20, 0.69, 7.89, 2.07, 1.61, 7.54, repro,
2006-05-30,0.04, 0.15, 8.26, 2.11, 1.64, 7.67, repro,
2006-05-31,-0.64, 0.07, 1.65, 2.13, 1.65, 7.65, repro,
2006-06-01,-0.95, -0.20, -1.12, 2.12, 1.69, 7.77, repro,
2006-06-02,-0.09, -0.07, 4.27, 2.20, 1.69, 7.91, repro,
2006-06-03,0.91, 0.95, -0.07, 2.16, 1.68, 7.89, repro,
2006-06-04,0.61, -0.59, 8.34, 2.12, 1.63, 7.67, repro,
2006-06-05,-0.11, -0.93, 4.86, 2.10, 1.61, 7.59, repro,
2006-06-06,-0.24, -0.25, 12.05, 2.10, 1.61, 7.54, repro,
2006-06-07,-1.39, -1.17, 7.91, 2.15, 1.65, 7.76, repro,
2006-06-08,0.47, -0.49, 2.44, 2.06, 1.61, 7.49, repro,
2006-06-09,0.33, -0.50, 6.48, 2.10, 1.65, 7.68, repro,
2006-06-10,-0.47, -0.26, 7.09, 2.07, 1.62, 7.56, repro,
2006-06-11,1.02, -0.63, 10.23, 2.13, 1.66, 7.69, repro,
2006-06-12,-0.95, 0.97, 13.67, 2.18, 1.73, 7.84, repro,
2006-06-13,-0.12, 0.31, 1.78, 2.15, 1.66, 7.71, repro,
2006-06-14,0.56, 0.56, 8.31, 2.14, 1.67, 7.71, repro,
2006-06-15,0.70, -0.18, 6.94, 2.04, 1.60, 7.41, repro,
2006-06-16,0.81, -1.27, 13.25, 2.11, 1.63, 7.60, repro,
2006-06-17,0.31, 0.35, 9.14, 2.05, 1.58, 7.40, repro,
2006-06-18,-1.49, -0.20, 12.87, 2.07, 1.62, 7.55, repro,
2006-06-19,-0.74, -0.08, 7.76, 2.06, 1.64, 7.59, repro,
2006-06-20,-0.10, -0.00, 5.96, 2.06, 1.64, 7.62, repro,
2006-06-21,0.14, -0.88, 10.73, 2.06, 1.64, 7.64, repro,
2006-06-22,0.16, -0.21, 8.96, 2.08, 1.63, 7.63, repro,
2006-06-23,-0.15, -0.78, 5.23, 2.06, 1.64, 7.61, repro,
2006-06-24,-0.94, -0.47, 4.74, 2.06, 1.62, 7.53, repro,
2006-06-25,-0.34, -0.50, 1.82, 2.06, 1.64, 7.60, repro,
2006-06-26,-0.24, 0.37, 10.39, 2.10, 1.72, 7.80, repro,
2006-06-27,-0.82, -1.49, 7.14, 2.13, 1.70, 7.78, repro,
2006-06-28,-1.41, -1.54, 10.35, 2.09, 1.63, 7.66, repro,
2006-06-29,-0.44, -0.99, 10.80, 2.00, 1.60, 7.44, repro,
2006-06-30,-0.50, -0.06, 10.40, 2.03, 1.61, 7.52, repro,
2006-07-01,-0.14, -0.18, 6.69, 2.09, 1.66, 7.74, repro,
2006-07-02,0.79, -1.81, 2.74, 2.09, 1.71, 7.82, repro,
2006-07-03,-0.47, 0.01, 1.35, 2.14, 1.68, 7.85, repro,
2006-07-04,-0.43, -1.55, 1.46, 2.04, 1.59, 7.49, repro,
2006-07-05,0.43, -0.67, 4.38, 2.09, 1.63, 7.68, repro,
2006-07-06,-0.38, 0.65, -0.85, 2.09, 1.63, 7.62, repro,
2006-07-07,-0.84, -0.23, 2.10, 2.05, 1.60, 7.54, repro,
2006-07-08,-0.32, 0.84, 4.97, 2.11, 1.66, 7.77, repro,
2006-07-09,0.39, -1.88, 5.74, 2.11, 1.65, 7.80, repro,
2006-07-10,-1.26, -1.02, 4.70, 2.11, 1.63, 7.74, repro,
2006-07-11,-0.09, -1.70, 9.08, 2.02, 1.59, 7.46, repro,
2006-07-12,-0.21, -0.92, 1.45, 2.04, 1.60, 7.59, repro,
2006-07-13,-0.29, -0.68, 8.67, 2.10, 1.65, 7.75, repro,
2006-07-14,0.29, -0.82, 6.11, 2.04, 1.59, 7.53, repro,
2006-07-15,-0.85, -0.96, 7.97, 2.11, 1.65, 7.83, repro,
2006-07-16,1.04, -0.76, 5.81, 2.03, 1.60, 7.53, repro,
2006-07-17,-0.29, -0.46, 7.85, 2.12, 1.69, 7.99, repro,
2006-07-18,-0.06, -0.87, 5.71, 1.99, 1.58, 7.34, repro,
2006-07-19,0.96, -2.05, 9.05, 2.09, 1.59, 7.72, repro,
2006-07-20,0.47, -2.15, 3.94, 1.99, 1.58, 7.36, repro,
2006-07-21,1.02, -0.24, 2.63, 1.99, 1.58, 7.40, repro,
2006-07-22,-0.24, 0.49, 7.08, 2.06, 1.65, 7.59, repro,
2006-07-23,0.36, -0.94, 11.23, 1.97, 1.56, 7.22, repro,
2006-07-24,0.80, -1.21, 8.29, 1.98, 1.58, 7.29, repro,
2006-07-25,1.29, -1.31, 5.91, 2.14, 1.72, 7.89, repro,
2006-07-26,-0.60, 0.04, 10.33, 2.02, 1.62, 7.45, repro,
2006-07-27,-0.12, 0.13, 12.11, 2.03, 1.60, 7.44, repro,
2006-07-28,-0.46, -0.45, 10.60, 2.11, 1.70, 7.76, repro,
2006-07-29,0.02, -1.19, 9.07, 2.08, 1.65, 7.64, repro,
2006-07-30,0.09, -1.21, 9.70, 2.03, 1.62, 7.46, repro,
2006-07-31,0.18, -1.67, 9.85, 1.99, 1.57, 7.30, repro,
2006-08-01,1.00, -0.68, 7.18, 1.99, 1.58, 7.31, repro,
2006-08-02,-0.35, 0.33, 9.26, 2.12, 1.72, 8.04, repro,
2006-08-03,-0.61, -1.08, 2.90, 2.05, 1.67, 7.71, repro,
2006-08-04,0.57, -1.02, 7.29, 2.13, 1.69, 7.93, repro,
2006-08-05,1.39, -0.42, 3.38, 2.06, 1.70, 7.82, repro,
2006-08-06,0.72, -0.82, 6.08, 2.01, 1.62, 7.59, repro,
2006-08-07,-0.44, 0.58, 8.62, 2.01, 1.61, 7.55, repro,
2006-08-08,-0.03, -1.10, 4.66, 2.04, 1.64, 7.59, repro,
2006-08-09,0.47, -0.38, 12.10, 2.10, 1.66, 7.72, repro,
2006-08-10,-0.74, -0.21, 11.64, 2.06, 1.62, 7.64, repro,
2006-08-11,-0.24, -0.76, 11.12, 2.05, 1.62, 7.54, repro,
2006-08-12,0.33, -0.46, 8.88, 2.08, 1.66, 7.61, repro,
2006-08-13,-0.02, -0.70, 13.36, 2.02, 1.62, 7.45, repro,
2006-08-14,-0.36, -1.36, 8.65, 2.02, 1.61, 7.45, repro,
2006-08-15,-0.85, -0.03, 18.10, 2.17, 1.67, 7.79, repro,
2006-08-16,1.11, -0.11, 3.71, 2.03, 1.63, 7.47, repro,
2006-08-17,0.58, -0.19, 4.80, 2.17, 1.69, 7.75, repro,
2006-08-18,-0.78, 0.53, 7.84, 2.04, 1.66, 7.51, repro,
2006-08-19,-0.09, -1.08, 6.21, 1.97, 1.58, 7.32, repro,
2006-08-20,0.40, -0.93, 9.16, 2.03, 1.60, 7.47, repro,
2006-08-21,0.00, -0.61, 9.00, 2.03, 1.63, 7.53, repro,
2006-08-22,-0.62, -0.32, 10.73, 2.03, 1.66, 7.59, repro,
2006-08-23,-0.11, -0.28, 9.05, 2.12, 1.65, 7.82, repro,
2006-08-24,-0.00, -0.01, 17.54, 2.04, 1.64, 7.54, repro,
2006-08-25,0.26, 0.24, 12.60, 2.08, 1.67, 7.82, repro,
2006-08-26,0.04, -1.09, 17.38, 2.10, 1.72, 7.99, repro,
2006-08-27,0.61, -0.94, 11.66, 2.09, 1.71, 7.88, repro,
2006-08-28,-0.12, -1.31, 9.65, 2.05, 1.69, 7.79, repro,
2006-08-29,0.04, -0.70, 6.43, 2.18, 1.79, 8.31, repro,
2006-08-30,-0.04, -1.45, 7.29, 2.11, 1.73, 7.99, repro,
2006-08-31,-0.14, -0.97, 5.58, 2.06, 1.70, 7.79, repro,
2006-09-01,-0.84, -1.71, 6.14, 2.10, 1.71, 7.91, repro,
2006-09-02,-0.17, -1.55, 4.84, 2.15, 1.77, 8.04, repro,
2006-09-03,-0.63, -0.96, 6.06, 2.12, 1.73, 7.97, repro,
2006-09-04,1.02, -0.37, 6.04, 2.18, 1.76, 8.14, repro,
2006-09-05,1.16, -0.92, -0.70, 2.12, 1.72, 7.95, repro,
2006-09-06,0.89, -0.99, 3.53, 2.06, 1.69, 7.78, repro,
2006-09-07,-0.37, -0.76, 12.40, 2.10, 1.73, 7.96, repro,
2006-09-08,-1.29, -0.58, 10.97, 2.16, 1.77, 8.22, repro,
2006-09-09,-0.45, -0.40, 5.74, 2.02, 1.65, 7.53, repro,
2006-09-10,0.69, -1.08, 10.41, 2.08, 1.70, 7.81, repro,
2006-09-11,0.44, -2.04, 4.10, 2.03, 1.64, 7.52, repro,
2006-09-12,-0.12, -1.21, 8.30, 2.02, 1.63, 7.46, repro,
2006-09-13,0.32, -1.34, 9.61, 2.01, 1.63, 7.40, repro,
2006-09-14,-0.16, -2.18, 14.43, 2.12, 1.73, 7.80, repro,
2006-09-15,1.15, -2.49, 11.25, 2.05, 1.63, 7.50, repro,
2006-09-16,1.39, -1.90, 11.60, 2.00, 1.61, 7.43, repro,
2006-09-17,-0.07, -1.41, 13.91, 1.98, 1.59, 7.31, repro,
2006-09-18,-0.62, -1.36, 14.30, 2.01, 1.59, 7.35, repro,
2006-09-19,-0.45, -1.83, 12.04, 2.00, 1.61, 7.43, repro,
2006-09-20,0.23, -2.24, 7.34, 2.00, 1.63, 7.48, repro,
2006-09-21,-0.25, -2.32, 16.73, 2.07, 1.69, 7.74, repro,
2006-09-22,1.28, -1.80, 12.32, 2.12, 1.69, 7.74, repro,
2006-09-23,0.64, -1.15, 14.10, 2.11, 1.65, 7.62, repro,
2006-09-24,0.91, -1.09, 8.48, 2.20, 1.74, 8.11, repro,
2006-09-25,0.37, -1.19, 11.91, 2.11, 1.66, 7.68, repro,
2006-09-26,0.10, -1.87, 7.12, 2.11, 1.69, 7.80, repro,
2006-09-27,0.47, -1.50, 6.25, 2.09, 1.68, 7.56, repro,
2006-09-28,0.41, -1.55, 8.29, 2.08, 1.66, 7.56, repro,
2006-09-29,-0.68, -1.43, 14.30, 2.07, 1.62, 7.46, repro,
2006-09-30,-0.15, -1.54, 21.04, 2.04, 1.67, 7.68, repro,
2006-10-01,1.01, -1.45, 14.16, 2.07, 1.70, 7.75, repro,
2006-10-02,0.01, -2.00, 5.52, 2.07, 1.70, 7.63, repro,
2006-10-03,-0.79, -1.61, 3.67, 2.16, 1.74, 7.87, repro,
2006-10-04,1.04, -1.71, 6.16, 2.07, 1.64, 7.58, repro,
2006-10-05,-0.57, -1.79, 11.11, 2.08, 1.67, 7.81, repro,
2006-10-06,-1.11, -1.47, 6.21, 2.10, 1.69, 7.92, repro,
2006-10-07,-0.28, -1.45, 0.70, 2.11, 1.72, 8.02, repro,
2006-10-08,-0.07, -1.60, 3.35, 2.09, 1.70, 7.85, repro,
2006-10-09,0.27, -2.39, 6.98, 2.10, 1.70, 7.84, repro,
2006-10-10,0.10, -1.44, 0.29, 2.06, 1.64, 7.62, repro,
2006-10-11,-2.54, -1.28, 9.39, 2.02, 1.65, 7.56, repro,
2006-10-12,-1.15, -1.52, 15.53, 2.06, 1.64, 7.52, repro,
2006-10-13,-0.46, -1.88, 15.04, 2.12, 1.70, 7.80, repro,
2006-10-14,0.35, -1.86, 13.84, 2.02, 1.64, 7.56, repro,
2006-10-15,-0.87, -1.57, 21.25, 2.06, 1.69, 7.80, repro,
2006-10-16,-1.00, -1.74, 22.20, 2.07, 1.66, 7.65, repro,
2006-10-17,-0.58, -1.36, 19.14, 2.19, 1.70, 8.24, repro,
2006-10-18,1.19, -0.95, 13.68, 2.10, 1.71, 7.93, repro,
2006-10-19,0.34, -1.50, 6.99, 2.18, 1.70, 8.20, repro,
2006-10-20,-0.56, -1.58, 8.99, 2.24, 1.81, 9.00, repro,
2006-10-21,-1.01, -1.48, 12.28, 2.22, 1.80, 8.41, repro,
2006-10-22,-2.29, -1.37, 9.83, 2.04, 1.69, 7.81, repro,
2006-10-23,-0.30, -1.36, 9.73, 2.10, 1.74, 8.17, repro,
2006-10-24,-0.12, -2.63, 6.41, 2.08, 1.69, 7.78, repro,
2006-10-25,-0.51, -0.29, 12.68, 2.10, 1.72, 7.92, repro,
2006-10-26,-0.18, -1.48, 13.57, 2.05, 1.70, 7.86, repro,
2006-10-27,0.31, -1.16, 9.58, 2.04, 1.73, 7.85, repro,
2006-10-28,-1.25, -0.41, 6.32, 2.09, 1.67, 7.87, repro,
2006-10-29,-1.34, -0.80, 13.03, 2.00, 1.64, 7.57, repro,
2006-10-30,-0.38, -1.13, 12.86, 2.00, 1.64, 7.54, repro,
2006-10-31,-1.25, -0.92, 15.47, 1.99, 1.62, 7.49, repro,
2006-11-01,0.55, -1.46, 15.33, 2.01, 1.62, 7.54, repro,
2006-11-02,-1.24, -0.14, 16.36, 2.08, 1.79, 7.98, repro,
2006-11-03,-0.09, -0.99, 10.16, 2.07, 1.74, 8.14, repro,
2006-11-04,-0.04, -1.76, 5.66, 2.08, 1.68, 7.81, repro,
2006-11-05,-0.70, -1.79, 5.22, 2.15, 1.79, 8.26, repro,
2006-11-06,-0.62, -1.34, 6.83, 2.02, 1.64, 7.60, repro,
2006-11-07,-0.10, -0.83, 7.47, 2.12, 1.75, 8.00, repro,
2006-11-08,-1.12, -1.27, 14.07, 2.08, 1.70, 7.92, repro,
2006-11-09,0.59, -0.22, 7.59, 2.21, 1.81, 8.38, repro,
2006-11-10,-0.70, -0.79, 5.96, 2.09, 1.66, 7.74, repro,
2006-11-11,-0.34, -0.11, 7.65, 2.06, 1.67, 7.72, repro,
2006-11-12,-0.54, -1.53, 10.47, 2.14, 1.74, 7.93, repro,
2006-11-13,0.69, -0.48, 9.53, 2.08, 1.68, 7.72, repro,
2006-11-14,-0.58, -2.76, 15.05, 1.99, 1.63, 7.57, repro,
2006-11-15,0.65, -0.49, 3.40, 2.02, 1.65, 7.61, repro,
2006-11-16,-0.69, -0.78, 14.65, 2.05, 1.67, 7.63, repro,
2006-11-17,0.41, -1.93, 6.72, 1.95, 1.58, 7.21, repro,
2006-11-18,-1.11, -1.06, 7.58, 1.95, 1.59, 7.22, repro,
2006-11-19,-0.66, -1.27, -0.47, 1.96, 1.60, 7.32, repro,
2006-11-20,-0.86, -1.70, -1.20, 1.97, 1.62, 7.41, repro,
2006-11-21,-1.61, -1.89, 14.19, 1.96, 1.61, 7.35, repro,
2006-11-22,-0.25, -2.15, 3.64, 1.96, 1.59, 7.26, repro,
2006-11-23,0.21, -1.63, 1.20, 2.00, 1.64, 7.53, repro,
2006-11-24,0.13, -1.62, 6.36, 2.05, 1.69, 7.77, repro,
2006-11-25,0.27, -1.29, 1.99, 2.06, 1.67, 7.65, repro,
2006-11-26,-1.24, -0.39, 4.26, 2.11, 1.73, 7.95, repro,
2006-11-27,-0.65, -0.99, 7.76, 1.98, 1.61, 7.36, repro,
2006-11-28,0.24, -0.84, 5.76, 2.02, 1.64, 7.48, repro,
2006-11-29,-0.52, -0.89, 4.38, 1.95, 1.60, 7.27, repro,
2006-11-30,-0.08, -0.31, 4.38, 1.96, 1.61, 7.31, repro,
2006-12-01,1.01, -0.05, -3.76, 2.03, 1.67, 7.62, repro,
2006-12-02,-0.58, -1.00, -5.37, 2.04, 1.65, 7.54, repro,
2006-12-03,0.54, -0.63, 5.28, 2.08, 1.72, 7.76, repro,
2006-12-04,0.24, -0.42, -0.63, 2.00, 1.61, 7.35, repro,
2006-12-05,-0.17, -1.05, 2.23, 1.98, 1.68, 7.44, repro,
2006-12-06,0.24, -1.99, 3.77, 1.99, 1.69, 7.52, repro,
2006-12-07,-0.03, -2.24, 1.73, 1.99, 1.69, 7.59, repro,
2006-12-08,-0.27, -1.10, 9.04, 2.07, 1.73, 7.70, repro,
2006-12-09,0.30, -1.61, 11.49, 2.03, 1.69, 7.55, repro,
2006-12-10,0.08, -1.05, 13.43, 2.02, 1.69, 7.58, repro,
2006-12-11,-0.80, -2.39, 8.18, 1.96, 1.63, 7.38, repro,
2006-12-12,1.14, -1.43, -4.34, 2.04, 1.70, 7.67, repro,
2006-12-13,1.70, -2.12, 4.52, 1.97, 1.71, 7.58, repro,
2006-12-14,0.50, -1.20, 7.54, 1.96, 1.64, 7.42, repro,
2006-12-15,0.29, -2.37, 9.20, 2.04, 1.75, 7.77, repro,
2006-12-16,0.21, -1.08, 4.62, 2.05, 1.73, 7.68, repro,
2006-12-17,-0.13, -1.51, 1.35, 2.07, 1.82, 8.03, repro,
2006-12-18,0.39, -0.40, 2.47, 2.16, 1.90, 8.41, repro,
2006-12-19,0.84, -1.00, 7.41, 2.08, 1.88, 8.13, repro,
2006-12-20,0.29, -1.27, 0.12, 2.08, 1.87, 8.02, repro,
2006-12-21,0.98, -1.39, -0.44, 1.96, 1.73, 7.52, repro,
2006-12-22,0.81, -1.47, 5.61, 2.10, 1.87, 8.19, repro,
2006-12-23,0.33, -1.01, 2.47, 2.05, 1.81, 7.98, repro,
2006-12-24,0.01, -1.26, 3.04, 1.96, 1.65, 7.47, repro,
2006-12-25,0.16, -0.48, 2.15, 2.01, 1.75, 7.64, repro,
2006-12-26,1.83, 0.00, 8.79, 2.01, 1.72, 7.67, repro,
2006-12-27,-2.55, -2.14, 6.81, 2.08, 1.77, 7.94, repro,
2006-12-28,1.07, -0.56, 7.95, 2.32, 2.18, 9.46, repro,
2006-12-29,0.85, -1.97, -7.70, 2.04, 1.76, 7.89, repro,
2006-12-30,2.06, -1.15, -0.70, 2.03, 1.74, 7.76, repro,
2006-12-31,1.93, -1.18, 1.28, 2.18, 1.89, 8.40, repro,
2007-01-01,1.19, -0.71, 3.10, 2.24, 2.03, 8.74, repro,
2007-01-02,1.21, -0.51, 1.92, 2.14, 1.91, 8.33, repro,
2007-01-03,0.66, -1.86, 4.20, 2.00, 1.79, 7.81, repro,
2007-01-04,0.74, -1.79, 13.01, 1.98, 1.71, 7.57, repro,
2007-01-05,1.50, -3.12, 3.77, 2.03, 1.77, 7.88, repro,
2007-01-06,2.55, -1.26, -4.68, 1.98, 1.70, 7.59, repro,
2007-01-07,1.66, -0.76, -2.54, 1.99, 1.64, 7.43, repro,
2007-01-08,0.58, -0.63, -4.47, 2.01, 1.69, 7.61, repro,
2007-01-09,0.80, -1.15, 0.20, 1.98, 1.64, 7.34, repro,
2007-01-10,-0.26, -1.31, 2.00, 2.00, 1.64, 7.42, repro,
2007-01-11,0.28, -1.05, 4.50, 2.04, 1.64, 7.52, repro,
2007-01-12,0.52, -1.85, 0.33, 1.96, 1.59, 7.31, repro,
2007-01-13,1.00, -0.42, -3.89, 1.92, 1.60, 7.27, repro,
2007-01-14,0.51, -0.63, -3.14, 1.91, 1.59, 7.13, repro,
2007-01-15,1.34, -0.99, -3.75, 1.92, 1.58, 7.15, repro,
2007-01-16,1.07, -0.65, -3.08, 1.96, 1.60, 7.25, repro,
2007-01-17,0.88, -0.96, -5.44, 1.97, 1.64, 7.44, repro,
2007-01-18,0.76, -1.88, -5.42, 2.00, 1.67, 7.51, repro,
2007-01-19,0.67, -0.96, -1.43, 1.98, 1.61, 7.50, repro,
2007-01-20,0.46, 0.56, -0.64, 2.02, 1.64, 7.57, repro,
2007-01-21,1.07, -0.37, 3.67, 1.96, 1.64, 7.33, repro,
2007-01-22,1.21, -0.18, 0.80, 1.92, 1.57, 7.08, repro,
2007-01-23,1.09, -0.67, -6.61, 1.93, 1.60, 7.21, repro,
2007-01-24,-0.53, -1.00, -0.50, 1.90, 1.58, 7.10, repro,
2007-01-25,0.66, -0.55, -5.65, 1.96, 1.63, 7.19, repro,
2007-01-26,-1.33, -1.28, 0.97, 1.91, 1.59, 7.05, repro,
2007-01-27,-0.42, -0.50, 0.72, 1.92, 1.57, 7.02, repro,
2007-01-28,1.10, -0.43, -0.39, 1.91, 1.56, 6.98, repro,
2007-01-29,-0.62, -0.70, -2.01, 1.91, 1.57, 7.05, repro,
2007-01-30,0.23, -0.53, 3.39, 1.89, 1.57, 6.96, repro,
2007-01-31,-0.54, -1.53, 6.81, 1.91, 1.57, 7.02, repro,
2007-02-01,-0.99, 0.61, 4.81, 1.94, 1.62, 7.21, repro,
2007-02-02,-0.09, -0.17, 5.88, 1.96, 1.59, 7.24, repro,
2007-02-03,0.53, -0.52, -5.13, 1.96, 1.61, 7.29, repro,
2007-02-04,-0.35, 0.13, 3.81, 1.91, 1.58, 7.04, repro,
2007-02-05,-0.21, -0.29, 0.84, 1.89, 1.57, 6.98, repro,
2007-02-06,-0.98, 0.01, -2.38, 1.95, 1.58, 7.10, repro,
2007-02-07,1.64, -1.38, 8.72, 1.94, 1.59, 7.13, repro,
2007-02-08,1.31, -1.56, -1.15, 2.06, 1.71, 7.60, repro,
2007-02-09,2.67, 0.79, 2.69, 1.94, 1.61, 7.18, repro,
2007-02-10,2.82, 0.47, 4.23, 1.92, 1.58, 7.06, repro,
2007-02-11,1.34, -0.52, 7.12, 1.96, 1.62, 7.16, repro,
2007-02-12,0.97, 0.13, -3.31, 1.92, 1.57, 7.03, repro,
2007-02-13,0.19, -1.04, 2.42, 1.92, 1.59, 7.11, repro,
2007-02-14,0.49, 0.67, 0.58, 1.92, 1.59, 7.08, repro,
2007-02-15,2.96, -0.58, -4.88, 1.92, 1.58, 7.07, repro,
2007-02-16,1.33, -0.47, 3.08, 1.92, 1.58, 7.06, repro,
2007-02-17,0.29, 0.05, 7.13, 1.96, 1.63, 7.21, repro,
2007-02-18,0.33, -0.47, 8.34, 1.92, 1.58, 7.13, repro,
2007-02-19,-0.04, -1.45, 10.24, 1.92, 1.59, 7.15, repro,
2007-02-20,-1.16, -1.25, 8.53, 1.91, 1.58, 7.08, repro,
2007-02-21,1.60, 0.36, 7.24, 1.91, 1.57, 7.06, repro,
2007-02-22,0.34, -0.25, 7.56, 1.97, 1.64, 7.32, repro,
2007-02-23,1.12, -0.39, 14.02, 2.17, 1.72, 7.87, repro,
2007-02-24,0.09, -0.27, 6.16, 1.93, 1.59, 7.15, repro,
2007-02-25,-0.92, -1.89, 4.76, 1.91, 1.58, 7.09, repro,
2007-02-26,-0.84, 0.21, 8.30, 1.92, 1.58, 7.11, repro,
2007-02-27,-1.75, -0.12, 13.23, 1.93, 1.60, 7.16, repro,
2007-02-28,-1.59, -0.94, 9.72, 1.94, 1.60, 7.24, repro,
2007-03-01,0.46, 1.00, 7.67, 1.99, 1.66, 7.44, repro,
2007-03-02,-0.02, 0.43, -0.48, 1.98, 1.64, 7.36, repro,
2007-03-03,0.17, -0.14, -5.30, 1.95, 1.63, 7.36, repro,
2007-03-04,0.82, 1.06, -0.03, 1.94, 1.63, 7.27, repro,
2007-03-05,0.26, 0.18, -0.94, 1.99, 1.67, 7.45, repro,
2007-03-06,0.16, -0.07, 0.79, 2.02, 1.68, 7.50, repro,
2007-03-07,-0.09, 0.23, 6.96, 1.95, 1.63, 7.30, repro,
2007-03-08,-0.69, -0.61, 6.55, 1.95, 1.63, 7.30, repro,
2007-03-09,-0.23, 0.12, -4.01, 1.97, 1.64, 7.40, repro,
2007-03-10,-0.43, -0.13, 5.80, 2.00, 1.67, 7.55, repro,
2007-03-11,-0.01, -0.01, -0.54, 1.97, 1.64, 7.38, repro,
2007-03-12,0.32, -0.35, 0.91, 2.00, 1.68, 7.67, repro,
2007-03-13,-0.99, -0.02, 4.66, 1.92, 1.59, 7.17, repro,
2007-03-14,-0.59, 0.50, 9.95, 1.93, 1.59, 7.18, repro,
2007-03-15,-0.64, 0.71, 5.38, 1.99, 1.65, 7.43, repro,
2007-03-16,0.78, -0.12, 3.47, 2.02, 1.67, 7.50, repro,
2007-03-17,-0.11, -0.02, 6.74, 1.94, 1.58, 7.13, repro,
2007-03-18,-0.98, 0.76, 13.26, 1.95, 1.58, 7.20, repro,
2007-03-19,-1.42, 0.32, 4.83, 1.98, 1.63, 7.33, repro,
2007-03-20,-1.27, -0.69, 10.84, 2.02, 1.65, 7.45, repro,
2007-03-21,-0.99, 0.22, 8.32, 2.03, 1.65, 7.46, repro,
2007-03-22,-1.42, -0.53, 9.47, 1.93, 1.57, 7.18, repro,
2007-03-23,0.16, -1.31, 9.11, 1.97, 1.62, 7.37, repro,
2007-03-24,-0.50, -1.72, 9.87, 1.98, 1.62, 7.41, repro,
2007-03-25,-1.08, -0.08, 13.52, 1.93, 1.57, 7.17, repro,
2007-03-26,-0.18, -0.88, 10.75, 1.93, 1.56, 7.03, repro,
2007-03-27,0.25, -1.79, 7.90, 2.04, 1.60, 7.36, repro,
2007-03-28,-1.42, -0.78, 10.10, 1.99, 1.60, 7.31, repro,
2007-03-29,-1.00, -0.19, 5.45, 1.98, 1.63, 7.50, repro,
2007-03-30,-0.20, -0.30, 0.81, 1.95, 1.58, 7.22, repro,
2007-03-31,-1.67, 0.87, 8.60, 1.95, 1.61, 7.24, repro,
2007-04-01,-0.50, 0.48, 5.83, 1.92, 1.56, 7.00, repro,
2007-04-02,-1.56, -0.20, 5.29, 1.93, 1.58, 7.13, repro,
2007-04-03,-0.40, -0.95, 2.97, 1.98, 1.63, 7.37, repro,
2007-04-04,0.34, -0.24, 4.21, 2.12, 1.80, 7.83, repro,
2007-04-05,-1.17, -0.60, 1.92, 2.10, 1.78, 7.74, repro,
2007-04-06,-1.52, -0.64, 7.18, 2.03, 1.68, 7.49, repro,
2007-04-07,-0.36, -0.91, 9.60, 1.96, 1.60, 7.15, repro,
2007-04-08,-1.04, -1.80, 5.38, 1.96, 1.60, 7.26, repro,
2007-04-09,0.63, 0.21, 4.13, 1.95, 1.57, 7.11, repro,
2007-04-10,0.80, -0.99, 8.86, 2.00, 1.62, 7.37, repro,
2007-04-11,-0.28, -1.13, 12.73, 1.94, 1.57, 7.09, repro,
2007-04-12,-0.65, -0.65, 13.15, 1.93, 1.58, 7.11, repro,
2007-04-13,-0.01, -0.00, 6.17, 1.94, 1.58, 7.12, repro,
2007-04-14,1.12, -0.02, 5.21, 2.00, 1.63, 7.34, repro,
2007-04-15,-2.32, -0.30, 4.51, 1.95, 1.57, 7.19, repro,
2007-04-16,-0.69, -0.25, 11.78, 1.95, 1.57, 7.16, repro,
2007-04-17,-1.04, -1.78, 4.69, 1.93, 1.57, 7.14, repro,
2007-04-18,0.13, -0.62, 8.02, 1.94, 1.57, 7.11, repro,
2007-04-19,-0.15, -1.42, 5.73, 1.94, 1.57, 7.13, repro,
2007-04-20,0.08, -1.05, 11.06, 2.01, 1.62, 7.32, repro,
2007-04-21,-0.83, -0.88, 10.07, 1.95, 1.57, 7.19, repro,
2007-04-22,0.47, -1.15, 12.27, 1.98, 1.61, 7.26, repro,
2007-04-23,-0.34, -0.10, 6.81, 1.97, 1.59, 7.21, repro,
2007-04-24,-0.52, -0.53, 8.31, 1.99, 1.60, 7.31, repro,
2007-04-25,-0.80, -0.29, 4.34, 1.97, 1.60, 7.26, repro,
2007-04-26,-0.27, -1.25, 8.39, 1.97, 1.58, 7.27, repro,
2007-04-27,-0.52, -0.87, 9.24, 1.95, 1.57, 7.16, repro,
2007-04-28,-0.39, -0.37, 5.40, 1.95, 1.57, 7.17, repro,
2007-04-29,-0.44, -1.61, 3.31, 1.95, 1.56, 7.15, repro,
2007-04-30,-0.69, -0.69, 5.61, 1.95, 1.57, 7.21, repro,
2007-05-01,-0.95, -0.34, 2.39, 1.97, 1.57, 7.25, repro,
2007-05-02,-1.03, -0.96, 5.73, 2.02, 1.57, 7.36, repro,
2007-05-03,-0.04, -1.21, 3.36, 2.08, 1.62, 7.54, repro,
2007-05-04,-0.51, -1.06, 4.91, 1.95, 1.56, 7.16, repro,
2007-05-05,-0.38, -0.79, 2.13, 1.99, 1.61, 7.33, repro,
2007-05-06,1.34, 0.03, 2.51, 1.96, 1.55, 7.19, repro,
2007-05-07,0.77, -0.29, 9.69, 1.97, 1.55, 7.17, repro,
2007-05-08,-0.72, -1.08, 10.90, 1.97, 1.56, 7.19, repro,
2007-05-09,0.35, -0.77, 5.38, 1.96, 1.56, 7.17, repro,
2007-05-10,-0.14, -1.53, 1.94, 2.14, 1.70, 7.93, repro,
2007-05-11,-0.06, -0.90, 4.44, 2.10, 1.66, 7.78, repro,
2007-05-12,0.84, -0.44, 5.64, 1.96, 1.55, 7.13, repro,
2007-05-13,1.14, -0.13, 5.81, 2.02, 1.60, 7.32, repro,
2007-05-14,0.05, -1.14, 3.18, 2.01, 1.59, 7.32, repro,
2007-05-15,-0.57, -1.58, 1.75, 1.98, 1.57, 7.20, repro,
2007-05-16,0.14, -1.33, 3.98, 1.97, 1.57, 7.21, repro,
2007-05-17,0.62, -1.11, 6.70, 1.98, 1.60, 7.34, repro,
2007-05-18,0.19, -0.93, 6.97, 2.08, 1.66, 7.55, repro,
2007-05-19,0.41, -0.30, 5.85, 2.00, 1.60, 7.26, repro,
2007-05-20,0.40, -1.77, 6.91, 2.10, 1.70, 7.69, repro,
2007-05-21,-0.95, -1.66, 7.33, 2.01, 1.60, 7.30, repro,
2007-05-22,-0.05, -1.23, 10.36, 1.98, 1.58, 7.17, repro,
2007-05-23,0.44, -1.51, 8.69, 2.01, 1.58, 7.28, repro,
2007-05-24,-0.41, -1.88, 3.99, 2.16, 1.73, 7.82, repro,
2007-05-25,-1.44, -1.34, 8.46, 2.03, 1.61, 7.28, repro,
2007-05-26,-1.42, -1.11, 7.81, 2.03, 1.61, 7.29, repro,
2007-05-27,-0.76, -0.64, 11.67, 2.04, 1.66, 7.32, repro,
2007-05-28,-0.74, -0.64, 5.61, 2.00, 1.60, 7.21, repro,
2007-05-29,-0.50, -1.60, 5.11, 2.01, 1.57, 7.16, repro,
2007-05-30,-0.76, -0.96, 6.06, 2.05, 1.59, 7.31, repro,
2007-05-31,-1.11, -1.21, 5.49, 2.07, 1.64, 7.41, repro,
2007-06-01,-2.20, -1.29, 11.37, 1.98, 1.56, 7.06, repro,
2007-06-02,0.18, -1.49, 8.81, 1.96, 1.56, 7.07, repro,
2007-06-03,-0.35, -0.74, 9.50, 1.96, 1.57, 7.09, repro,
2007-06-04,-0.56, -0.59, 6.30, 2.00, 1.57, 7.20, repro,
2007-06-05,0.01, 0.04, 5.06, 2.05, 1.60, 7.35, repro,
2007-06-06,-0.28, -0.92, 6.43, 1.98, 1.57, 7.12, repro,
2007-06-07,-0.28, -1.01, 14.19, 1.97, 1.56, 7.08, repro,
2007-06-08,-0.09, -0.81, 6.13, 1.98, 1.58, 7.17, repro,
2007-06-09,-1.14, -0.86, 5.65, 2.01, 1.62, 7.30, repro,
2007-06-10,0.14, -2.24, 1.75, 2.02, 1.59, 7.28, repro,
2007-06-11,-0.99, -1.26, 7.36, 2.01, 1.66, 7.30, repro,
2007-06-12,-0.66, -1.12, 3.49, 2.01, 1.67, 7.31, repro,
2007-06-13,0.30, -1.20, 1.15, 2.03, 1.62, 7.28, repro,
2007-06-14,0.11, -1.14, 0.50, 1.98, 1.58, 7.17, repro,
2007-06-15,0.04, -0.09, 5.83, 1.99, 1.58, 7.21, repro,
2007-06-16,0.38, -1.20, 3.33, 1.97, 1.57, 7.09, repro,